Weekly Spill Flow - Pukaki,,
Period ended,m�,QC
1980-01-08,185090572,
1980-01-15,169253884,
1980-01-22,255092544,
1980-01-29,170497353,
1980-02-05,211878979,
1980-02-12,172363161,
1980-02-19,135810864,
1980-02-26,134861932,
1980-03-04,143359372,
1980-03-11,90996393,
1980-03-18,3746736,
1980-03-25,6381244,
1980-04-01,148361068,
1980-04-08,130226745,
1980-04-15,98508614,
1980-04-22,125817148,
1980-04-29,112442601,
1980-05-06,103068201,
1980-05-13,99473875,
1980-05-20,94920940,
1980-05-27,25001827,
1980-06-03,198979,
1980-06-10,0,
1980-06-17,0,
1980-06-24,0,
1980-07-01,0,
1980-07-08,0,
1980-07-15,60155827,
1980-07-22,60805987,
1980-07-29,59011545,
1980-08-05,169485523,
1980-08-12,39769833,
1980-08-19,0,
1980-08-26,0,
1980-09-02,0,
1980-09-09,0,
1980-09-16,0,
1980-09-23,0,
1980-09-30,0,
1980-10-07,0,
1980-10-14,0,
1980-10-21,0,
1980-10-28,0,
1980-11-04,31504032,
1980-11-11,42747868,
1980-11-18,25682227,
1980-11-25,2742768,
1980-12-02,47902579,
1980-12-09,68763945,
1980-12-16,19126800,
1980-12-23,15360105,
1980-12-30,55613779,
1981-01-06,43583097,
1981-01-13,42973459,
1981-01-20,19649347,
1981-01-27,16380403,
1981-02-03,0,
1981-02-10,0,
1981-02-17,0,
1981-02-24,27604281,
1981-03-03,43261948,
1981-03-10,24566371,
1981-03-17,188835494,
1981-03-24,89699097,
1981-03-31,171578736,
1981-04-07,58807123,
1981-04-14,19023984,
1981-04-21,0,
1981-04-28,0,
1981-05-05,0,
1981-05-12,0,
1981-05-19,0,
1981-05-26,0,
1981-06-02,0,
1981-06-09,0,
1981-06-16,0,
1981-06-23,0,
1981-06-30,0,
1981-07-07,0,
1981-07-14,0,
1981-07-21,0,
1981-07-28,0,
1981-08-04,0,
1981-08-11,0,
1981-08-18,0,
1981-08-25,0,
1981-09-01,0,
1981-09-08,0,
1981-09-15,0,
1981-09-22,0,
1981-09-29,0,
1981-10-06,0,
1981-10-13,0,
1981-10-20,0,
1981-10-27,0,
1981-11-03,0,
1981-11-10,0,
1981-11-17,0,
1981-11-24,0,
1981-12-01,0,
1981-12-08,0,
1981-12-15,0,
1981-12-22,0,
1981-12-29,0,
1982-01-05,0,
1982-01-12,0,
1982-01-19,0,
1982-01-26,0,
1982-02-02,0,
1982-02-09,30815769,
1982-02-16,81490752,
1982-02-23,137089411,
1982-03-02,188430883,
1982-03-09,226340352,
1982-03-16,262749916,
1982-03-23,183594902,
1982-03-30,102973852,
1982-04-06,4876502,
1982-04-13,0,
1982-04-20,0,
1982-04-27,0,
1982-05-04,0,
1982-05-11,0,
1982-05-18,0,
1982-05-25,0,
1982-06-01,0,
1982-06-08,0,
1982-06-15,0,
1982-06-22,0,
1982-06-29,0,
1982-07-06,0,
1982-07-13,0,
1982-07-20,0,
1982-07-27,0,
1982-08-03,0,
1982-08-10,0,
1982-08-17,0,
1982-08-24,0,
1982-08-31,0,
1982-09-07,0,
1982-09-14,0,
1982-09-21,0,
1982-09-28,0,
1982-10-05,0,
1982-10-12,0,
1982-10-19,0,
1982-10-26,0,
1982-11-02,0,
1982-11-09,0,
1982-11-16,0,
1982-11-23,0,
1982-11-30,0,
1982-12-07,0,
1982-12-14,0,
1982-12-21,0,
1982-12-28,0,
1983-01-04,0,
1983-01-11,0,
1983-01-18,0,
1983-01-25,0,
1983-02-01,180230,
1983-02-08,75690115,
1983-02-15,98789846,
1983-02-22,0,
1983-03-01,0,
1983-03-08,0,
1983-03-15,14178326,
1983-03-22,0,
1983-03-29,0,
1983-04-05,0,
1983-04-12,0,
1983-04-19,0,
1983-04-26,0,
1983-05-03,0,
1983-05-10,0,
1983-05-17,27075686,
1983-05-24,5068224,
1983-05-31,0,
1983-06-07,0,
1983-06-14,0,
1983-06-21,0,
1983-06-28,0,
1983-07-05,0,
1983-07-12,0,
1983-07-19,0,
1983-07-26,0,
1983-08-02,0,
1983-08-09,0,
1983-08-16,0,
1983-08-23,0,
1983-08-30,0,
1983-09-06,0,
1983-09-13,0,
1983-09-20,0,
1983-09-27,0,
1983-10-04,0,
1983-10-11,0,
1983-10-18,0,
1983-10-25,0,
1983-11-01,0,
1983-11-08,13803350,
1983-11-15,79548739,
1983-11-22,149525913,
1983-11-29,206778096,
1983-12-06,196387027,
1983-12-13,197465385,
1983-12-20,181153324,
1983-12-27,138338323,
1984-01-03,116843126,
1984-01-10,30943382,
1984-01-17,139001184,
1984-01-24,161312256,
1984-01-31,184091443,
1984-02-07,210914323,
1984-02-14,178167427,
1984-02-21,169044019,
1984-02-28,0,
1984-03-06,0,
1984-03-13,0,
1984-03-20,0,
1984-03-27,0,
1984-04-03,0,
1984-04-10,0,
1984-04-17,0,
1984-04-24,0,
1984-05-01,0,
1984-05-08,0,
1984-05-15,0,
1984-05-22,0,
1984-05-29,0,
1984-06-05,0,
1984-06-12,0,
1984-06-19,0,
1984-06-26,0,
1984-07-03,0,
1984-07-10,0,
1984-07-17,0,
1984-07-24,0,
1984-07-31,0,
1984-08-07,0,
1984-08-14,0,
1984-08-21,0,
1984-08-28,0,
1984-09-04,0,
1984-09-11,0,
1984-09-18,0,
1984-09-25,0,
1984-10-02,0,
1984-10-09,0,
1984-10-16,0,
1984-10-23,0,
1984-10-30,0,
1984-11-06,0,
1984-11-13,0,
1984-11-20,0,
1984-11-27,0,
1984-12-04,0,
1984-12-11,0,
1984-12-18,0,
1984-12-25,0,
1985-01-01,35842262,
1985-01-08,176724374,
1985-01-15,282375072,
1985-01-22,213113980,
1985-01-29,172558512,
1985-02-05,84271622,
1985-02-12,70251753,
1985-02-19,3170966,
1985-02-26,0,
1985-03-05,0,
1985-03-12,0,
1985-03-19,0,
1985-03-26,0,
1985-04-02,0,
1985-04-09,0,
1985-04-16,0,
1985-04-23,0,
1985-04-30,0,
1985-05-07,0,
1985-05-14,0,
1985-05-21,0,
1985-05-28,0,
1985-06-04,0,
1985-06-11,0,
1985-06-18,0,
1985-06-25,0,
1985-07-02,0,
1985-07-09,0,
1985-07-16,0,
1985-07-23,0,
1985-07-30,0,
1985-08-06,0,
1985-08-13,0,
1985-08-20,0,
1985-08-27,0,
1985-09-03,0,
1985-09-10,0,
1985-09-17,0,
1985-09-24,0,
1985-10-01,0,
1985-10-08,0,
1985-10-15,0,
1985-10-22,0,
1985-10-29,0,
1985-11-05,0,
1985-11-12,0,
1985-11-19,0,
1985-11-26,0,
1985-12-03,0,
1985-12-10,0,
1985-12-17,0,
1985-12-24,0,
1985-12-31,0,
1986-01-07,0,
1986-01-14,0,
1986-01-21,0,
1986-01-28,0,
1986-02-04,0,
1986-02-11,0,
1986-02-18,0,
1986-02-25,0,
1986-03-04,0,
1986-03-11,0,
1986-03-18,0,
1986-03-25,0,
1986-04-01,0,
1986-04-08,0,
1986-04-15,0,
1986-04-22,0,
1986-04-29,0,
1986-05-06,0,
1986-05-13,0,
1986-05-20,0,
1986-05-27,0,
1986-06-03,0,
1986-06-10,0,
1986-06-17,0,
1986-06-24,0,
1986-07-01,0,
1986-07-08,0,
1986-07-15,0,
1986-07-22,0,
1986-07-29,0,
1986-08-05,0,
1986-08-12,0,
1986-08-19,0,
1986-08-26,0,
1986-09-02,0,
1986-09-09,0,
1986-09-16,0,
1986-09-23,0,
1986-09-30,0,
1986-10-07,0,
1986-10-14,0,
1986-10-21,0,
1986-10-28,0,
1986-11-04,0,
1986-11-11,0,
1986-11-18,0,
1986-11-25,108622080,
1986-12-02,63022579,
1986-12-09,0,
1986-12-16,0,
1986-12-23,0,
1986-12-30,0,
1987-01-06,0,
1987-01-13,0,
1987-01-20,0,
1987-01-27,0,
1987-02-03,0,
1987-02-10,0,
1987-02-17,0,
1987-02-24,0,
1987-03-03,0,
1987-03-10,47174,
1987-03-17,188015385,
1987-03-24,26363836,
1987-03-31,0,
1987-04-07,145759824,
1987-04-14,41059872,
1987-04-21,0,
1987-04-28,68082940,
1987-05-05,8842176,
1987-05-12,0,
1987-05-19,0,
1987-05-26,0,
1987-06-02,0,
1987-06-09,5702659,
1987-06-16,789868,
1987-06-23,5738947,
1987-06-30,0,
1987-07-07,0,
1987-07-14,0,
1987-07-21,0,
1987-07-28,0,
1987-08-04,0,
1987-08-11,0,
1987-08-18,0,
1987-08-25,0,
1987-09-01,0,
1987-09-08,0,
1987-09-15,0,
1987-09-22,0,
1987-09-29,0,
1987-10-06,0,
1987-10-13,0,
1987-10-20,0,
1987-10-27,0,
1987-11-03,0,
1987-11-10,0,
1987-11-17,0,
1987-11-24,0,
1987-12-01,0,
1987-12-08,0,
1987-12-15,0,
1987-12-22,0,
1987-12-29,0,
1988-01-05,0,
1988-01-12,0,
1988-01-19,0,
1988-01-26,0,
1988-02-02,0,
1988-02-09,0,
1988-02-16,0,
1988-02-23,0,
1988-03-01,0,
1988-03-08,6394550,
1988-03-15,0,
1988-03-22,0,
1988-03-29,0,
1988-04-05,0,
1988-04-12,0,
1988-04-19,0,
1988-04-26,0,
1988-05-03,0,
1988-05-10,0,
1988-05-17,0,
1988-05-24,0,
1988-05-31,0,
1988-06-07,0,
1988-06-14,0,
1988-06-21,0,
1988-06-28,0,
1988-07-05,0,
1988-07-12,0,
1988-07-19,0,
1988-07-26,0,
1988-08-02,0,
1988-08-09,0,
1988-08-16,0,
1988-08-23,0,
1988-08-30,0,
1988-09-06,0,
1988-09-13,0,
1988-09-20,0,
1988-09-27,0,
1988-10-04,0,
1988-10-11,0,
1988-10-18,0,
1988-10-25,0,
1988-11-01,44072380,
1988-11-08,143208172,
1988-11-15,91115539,
1988-11-22,104147164,
1988-11-29,142150377,
1988-12-06,177268089,
1988-12-13,118410163,
1988-12-20,75164544,
1988-12-27,0,
1989-01-03,0,
1989-01-10,0,
1989-01-17,0,
1989-01-24,1322697,
1989-01-31,3351801,
1989-02-07,0,
1989-02-14,0,
1989-02-21,0,
1989-02-28,6530630,
1989-03-07,0,
1989-03-14,0,
1989-03-21,0,
1989-03-28,0,
1989-04-04,142296134,
1989-04-11,4846867,
1989-04-18,0,
1989-04-25,0,
1989-05-02,0,
1989-05-09,0,
1989-05-16,0,
1989-05-23,0,
1989-05-30,0,
1989-06-06,0,
1989-06-13,0,
1989-06-20,0,
1989-06-27,0,
1989-07-04,0,
1989-07-11,0,
1989-07-18,0,
1989-07-25,0,
1989-08-01,0,
1989-08-08,0,
1989-08-15,0,
1989-08-22,0,
1989-08-29,0,
1989-09-05,0,
1989-09-12,0,
1989-09-19,0,
1989-09-26,0,
1989-10-03,0,
1989-10-10,0,
1989-10-17,0,
1989-10-24,0,
1989-10-31,0,
1989-11-07,0,
1989-11-14,0,
1989-11-21,0,
1989-11-28,0,
1989-12-05,0,
1989-12-12,0,
1989-12-19,0,
1989-12-26,0,
1990-01-02,0,
1990-01-09,0,
1990-01-16,0,
1990-01-23,0,
1990-01-30,0,
1990-02-06,0,
1990-02-13,0,
1990-02-20,19355414,
1990-02-27,123379,
1990-03-06,0,
1990-03-13,0,
1990-03-20,0,
1990-03-27,0,
1990-04-03,0,
1990-04-10,0,
1990-04-17,0,
1990-04-24,0,
1990-05-01,0,
1990-05-08,0,
1990-05-15,0,
1990-05-22,0,
1990-05-29,0,
1990-06-05,0,
1990-06-12,0,
1990-06-19,0,
1990-06-26,0,
1990-07-03,0,
1990-07-10,0,
1990-07-17,0,
1990-07-24,0,
1990-07-31,0,
1990-08-07,0,
1990-08-14,0,
1990-08-21,0,
1990-08-28,0,
1990-09-04,0,
1990-09-11,0,
1990-09-18,0,
1990-09-25,0,
1990-10-02,0,
1990-10-09,0,
1990-10-16,0,
1990-10-23,0,
1990-10-30,0,
1990-11-06,0,
1990-11-13,0,
1990-11-20,0,
1990-11-27,39916,
1990-12-04,0,
1990-12-11,0,
1990-12-18,0,
1990-12-25,0,
1991-01-01,0,
1991-01-08,0,
1991-01-15,0,
1991-01-22,0,
1991-01-29,0,
1991-02-05,0,
1991-02-12,0,
1991-02-19,54132019,
1991-02-26,128301062,
1991-03-05,92472710,
1991-03-12,11477894,
1991-03-19,0,
1991-03-26,0,
1991-04-02,0,
1991-04-09,0,
1991-04-16,0,
1991-04-23,0,
1991-04-30,0,
1991-05-07,0,
1991-05-14,0,
1991-05-21,0,
1991-05-28,0,
1991-06-04,0,
1991-06-11,0,
1991-06-18,0,
1991-06-25,0,
1991-07-02,0,
1991-07-09,0,
1991-07-16,0,
1991-07-23,0,
1991-07-30,0,
1991-08-06,0,
1991-08-13,270345,
1991-08-20,0,
1991-08-27,0,
1991-09-03,0,
1991-09-10,0,
1991-09-17,0,
1991-09-24,0,
1991-10-01,3233260,
1991-10-08,4032806,
1991-10-15,0,
1991-10-22,0,
1991-10-29,0,
1991-11-05,0,
1991-11-12,0,
1991-11-19,6479827,
1991-11-26,527385,
1991-12-03,404006,
1991-12-10,0,
1991-12-17,0,
1991-12-24,0,
1991-12-31,0,
1992-01-07,0,
1992-01-14,0,
1992-01-21,0,
1992-01-28,0,
1992-02-04,0,
1992-02-11,0,
1992-02-18,0,
1992-02-25,0,
1992-03-03,0,
1992-03-10,0,
1992-03-17,0,
1992-03-24,0,
1992-03-31,0,
1992-04-07,0,
1992-04-14,0,
1992-04-21,0,
1992-04-28,0,
1992-05-05,0,
1992-05-12,0,
1992-05-19,0,
1992-05-26,0,
1992-06-02,0,
1992-06-09,0,
1992-06-16,0,
1992-06-23,0,
1992-06-30,0,
1992-07-07,0,
1992-07-14,0,
1992-07-21,0,
1992-07-28,0,
1992-08-04,0,
1992-08-11,0,
1992-08-18,0,
1992-08-25,0,
1992-09-01,0,
1992-09-08,0,
1992-09-15,0,
1992-09-22,0,
1992-09-29,0,
1992-10-06,0,
1992-10-13,0,
1992-10-20,0,
1992-10-27,0,
1992-11-03,0,
1992-11-10,0,
1992-11-17,0,
1992-11-24,0,
1992-12-01,0,
1992-12-08,0,
1992-12-15,0,
1992-12-22,0,
1992-12-29,0,
1993-01-05,0,
1993-01-12,0,
1993-01-19,0,
1993-01-26,0,
1993-02-02,0,
1993-02-09,0,
1993-02-16,0,
1993-02-23,0,
1993-03-02,0,
1993-03-09,0,
1993-03-16,0,
1993-03-23,6132672,
1993-03-30,0,
1993-04-06,0,
1993-04-13,0,
1993-04-20,0,
1993-04-27,0,
1993-05-04,0,
1993-05-11,0,
1993-05-18,0,
1993-05-25,0,
1993-06-01,0,
1993-06-08,0,
1993-06-15,0,
1993-06-22,0,
1993-06-29,0,
1993-07-06,0,
1993-07-13,0,
1993-07-20,0,
1993-07-27,0,
1993-08-03,0,
1993-08-10,0,
1993-08-17,0,
1993-08-24,0,
1993-08-31,0,
1993-09-07,0,
1993-09-14,0,
1993-09-21,0,
1993-09-28,0,
1993-10-05,0,
1993-10-12,0,
1993-10-19,0,
1993-10-26,0,
1993-11-02,0,
1993-11-09,0,
1993-11-16,0,
1993-11-23,0,
1993-11-30,0,
1993-12-07,0,
1993-12-14,0,
1993-12-21,0,
1993-12-28,0,
1994-01-04,0,
1994-01-11,0,
1994-01-18,0,
1994-01-25,0,
1994-02-01,0,
1994-02-08,0,
1994-02-15,0,
1994-02-22,0,
1994-03-01,3246566,
1994-03-08,0,
1994-03-15,0,
1994-03-22,0,
1994-03-29,0,
1994-04-05,0,
1994-04-12,0,
1994-04-19,0,
1994-04-26,0,
1994-05-03,0,
1994-05-10,0,
1994-05-17,0,
1994-05-24,0,
1994-05-31,0,
1994-06-07,0,
1994-06-14,0,
1994-06-21,0,
1994-06-28,0,
1994-07-05,0,
1994-07-12,0,
1994-07-19,0,
1994-07-26,0,
1994-08-02,0,
1994-08-09,0,
1994-08-16,0,
1994-08-23,0,
1994-08-30,0,
1994-09-06,0,
1994-09-13,0,
1994-09-20,0,
1994-09-27,0,
1994-10-04,0,
1994-10-11,0,
1994-10-18,0,
1994-10-25,0,
1994-11-01,0,
1994-11-08,0,
1994-11-15,0,
1994-11-22,0,
1994-11-29,0,
1994-12-06,0,
1994-12-13,0,
1994-12-20,0,
1994-12-27,0,
1995-01-03,0,
1995-01-10,0,
1995-01-17,0,
1995-01-24,0,
1995-01-31,0,
1995-02-07,0,
1995-02-14,0,
1995-02-21,0,
1995-02-28,5239987,
1995-03-07,0,
1995-03-14,0,
1995-03-21,0,
1995-03-28,0,
1995-04-04,0,
1995-04-11,0,
1995-04-18,71633721,
1995-04-25,16169932,
1995-05-02,17210793,
1995-05-09,0,
1995-05-16,0,
1995-05-23,0,
1995-05-30,0,
1995-06-06,0,
1995-06-13,0,
1995-06-20,0,
1995-06-27,0,
1995-07-04,0,
1995-07-11,0,
1995-07-18,0,
1995-07-25,0,
1995-08-01,0,
1995-08-08,0,
1995-08-15,0,
1995-08-22,0,
1995-08-29,0,
1995-09-05,0,
1995-09-12,0,
1995-09-19,0,
1995-09-26,0,
1995-10-03,0,
1995-10-10,0,
1995-10-17,0,
1995-10-24,0,
1995-10-31,0,
1995-11-07,0,
1995-11-14,0,
1995-11-21,0,
1995-11-28,0,
1995-12-05,0,
1995-12-12,9392544,
1995-12-19,412323609,
1995-12-26,257095036,
1996-01-02,267654240,
1996-01-09,176760662,
1996-01-16,113926176,
1996-01-23,143188214,
1996-01-30,109471219,
1996-02-06,15159916,
1996-02-13,72503424,
1996-02-20,126945100,
1996-02-27,8716377,
1996-03-05,0,
1996-03-12,0,
1996-03-19,0,
1996-03-26,0,
1996-04-02,0,
1996-04-09,0,
1996-04-16,9072,
1996-04-23,11491,
1996-04-30,0,
1996-05-07,0,
1996-05-14,0,
1996-05-21,0,
1996-05-28,0,
1996-06-04,0,
1996-06-11,0,
1996-06-18,0,
1996-06-25,0,
1996-07-02,0,
1996-07-09,0,
1996-07-16,0,
1996-07-23,0,
1996-07-30,0,
1996-08-06,0,
1996-08-13,0,
1996-08-20,0,
1996-08-27,0,
1996-09-03,0,
1996-09-10,0,
1996-09-17,0,
1996-09-24,0,
1996-10-01,0,
1996-10-08,0,
1996-10-15,0,
1996-10-22,0,
1996-10-29,0,
1996-11-05,0,
1996-11-12,0,
1996-11-19,0,
1996-11-26,0,
1996-12-03,0,
1996-12-10,0,
1996-12-17,0,
1996-12-24,0,
1996-12-31,0,
1997-01-07,0,
1997-01-14,0,
1997-01-21,0,
1997-01-28,0,
1997-02-04,0,
1997-02-11,0,
1997-02-18,0,
1997-02-25,6240931,
1997-03-04,0,
1997-03-11,0,
1997-03-18,0,
1997-03-25,0,
1997-04-01,0,
1997-04-08,0,
1997-04-15,0,
1997-04-22,0,
1997-04-29,0,
1997-05-06,0,
1997-05-13,0,
1997-05-20,0,
1997-05-27,0,
1997-06-03,0,
1997-06-10,0,
1997-06-17,0,
1997-06-24,0,
1997-07-01,0,
1997-07-08,0,
1997-07-15,0,
1997-07-22,0,
1997-07-29,0,
1997-08-05,0,
1997-08-12,0,
1997-08-19,0,
1997-08-26,0,
1997-09-02,0,
1997-09-09,0,
1997-09-16,0,
1997-09-23,0,
1997-09-30,0,
1997-10-07,0,
1997-10-14,0,
1997-10-21,0,
1997-10-28,0,
1997-11-04,0,
1997-11-11,0,
1997-11-18,0,
1997-11-25,0,
1997-12-02,0,
1997-12-09,0,
1997-12-16,0,
1997-12-23,0,
1997-12-30,0,
1998-01-06,0,
1998-01-13,0,
1998-01-20,0,
1998-01-27,0,
1998-02-03,0,
1998-02-10,0,
1998-02-17,0,
1998-02-24,95950310,
1998-03-03,199080201,
1998-03-10,186951542,
1998-03-17,278451129,
1998-03-24,70753737,
1998-03-31,74678284,
1998-04-07,208814457,
1998-04-14,61286803,
1998-04-21,1923868,
1998-04-28,0,
1998-05-05,0,
1998-05-12,0,
1998-05-19,0,
1998-05-26,0,
1998-06-02,0,
1998-06-09,0,
1998-06-16,0,
1998-06-23,0,
1998-06-30,0,
1998-07-07,0,
1998-07-14,0,
1998-07-21,0,
1998-07-28,0,
1998-08-04,0,
1998-08-11,0,
1998-08-18,0,
1998-08-25,0,
1998-09-01,0,
1998-09-08,0,
1998-09-15,0,
1998-09-22,0,
1998-09-29,0,
1998-10-06,0,
1998-10-13,0,
1998-10-20,0,
1998-10-27,54432,
1998-11-03,0,
1998-11-10,0,
1998-11-17,0,
1998-11-24,0,
1998-12-01,0,
1998-12-08,0,
1998-12-15,0,
1998-12-22,0,
1998-12-29,0,
1999-01-05,0,
1999-01-12,0,
1999-01-19,0,
1999-01-26,0,
1999-02-02,0,
1999-02-09,0,
1999-02-16,0,
1999-02-23,0,
1999-03-02,0,
1999-03-09,0,
1999-03-16,0,
1999-03-23,0,
1999-03-30,3781814,
1999-04-06,0,
1999-04-13,0,
1999-04-20,0,
1999-04-27,0,
1999-05-04,0,
1999-05-11,0,
1999-05-18,0,
1999-05-25,0,
1999-06-01,0,
1999-06-08,0,
1999-06-15,0,
1999-06-22,0,
1999-06-29,0,
1999-07-06,0,
1999-07-13,0,
1999-07-20,0,
1999-07-27,0,
1999-08-03,0,
1999-08-10,0,
1999-08-17,0,
1999-08-24,0,
1999-08-31,0,
1999-09-07,0,
1999-09-14,0,
1999-09-21,0,
1999-09-28,0,
1999-10-05,0,
1999-10-12,0,
1999-10-19,0,
1999-10-26,0,
1999-11-02,0,
1999-11-09,0,
1999-11-16,0,
1999-11-23,0,
1999-11-30,0,
1999-12-07,0,
1999-12-14,0,
1999-12-21,0,
1999-12-28,0,
2000-01-04,0,
2000-01-11,0,
2000-01-18,0,
2000-01-25,0,
2000-02-01,0,
2000-02-08,0,
2000-02-15,16934,
2000-02-22,5841763,
2000-02-29,0,
2000-03-07,0,
2000-03-14,0,
2000-03-21,2988316,
2000-03-28,1654128,
2000-04-04,0,
2000-04-11,0,
2000-04-18,0,
2000-04-25,0,
2000-05-02,0,
2000-05-09,0,
2000-05-16,0,
2000-05-23,0,
2000-05-30,0,
2000-06-06,0,
2000-06-13,0,
2000-06-20,0,
2000-06-27,0,
2000-07-04,0,
2000-07-11,0,
2000-07-18,0,
2000-07-25,0,
2000-08-01,0,
2000-08-08,0,
2000-08-15,0,
2000-08-22,0,
2000-08-29,0,
2000-09-05,0,
2000-09-12,0,
2000-09-19,0,
2000-09-26,0,
2000-10-03,0,
2000-10-10,0,
2000-10-17,0,
2000-10-24,0,
2000-10-31,0,
2000-11-07,0,
2000-11-14,0,
2000-11-21,0,
2000-11-28,0,
2000-12-05,0,
2000-12-12,0,
2000-12-19,0,
2000-12-26,0,
2001-01-02,7422105,
2001-01-09,104393923,
2001-01-16,135728006,
2001-01-23,129878985,
2001-01-30,64593244,
2001-02-06,15299020,
2001-02-13,0,
2001-02-20,3763670,
2001-02-27,0,
2001-03-06,0,
2001-03-13,0,
2001-03-20,0,
2001-03-27,0,
2001-04-03,0,
2001-04-10,0,
2001-04-17,0,
2001-04-24,0,
2001-05-01,0,
2001-05-08,0,
2001-05-15,0,
2001-05-22,0,
2001-05-29,0,
2001-06-05,0,
2001-06-12,0,
2001-06-19,0,
2001-06-26,0,
2001-07-03,0,
2001-07-10,0,
2001-07-17,0,
2001-07-24,0,
2001-07-31,0,
2001-08-07,0,
2001-08-14,0,
2001-08-21,0,
2001-08-28,0,
2001-09-04,0,
2001-09-11,0,
2001-09-18,0,
2001-09-25,0,
2001-10-02,0,
2001-10-09,0,
2001-10-16,0,
2001-10-23,0,
2001-10-30,0,
2001-11-06,0,
2001-11-13,0,
2001-11-20,0,
2001-11-27,0,
2001-12-04,0,
2001-12-11,0,
2001-12-18,0,
2001-12-25,0,
2002-01-01,0,
2002-01-08,0,
2002-01-15,0,
2002-01-22,54537840,
2002-01-29,84821990,
2002-02-05,8276083,
2002-02-12,0,
2002-02-19,0,
2002-02-26,5208537,
2002-03-05,0,
2002-03-12,0,
2002-03-19,0,
2002-03-26,0,
2002-04-02,0,
2002-04-09,0,
2002-04-16,0,
2002-04-23,0,
2002-04-30,0,
2002-05-07,0,
2002-05-14,0,
2002-05-21,0,
2002-05-28,0,
2002-06-04,0,
2002-06-11,0,
2002-06-18,0,
2002-06-25,0,
2002-07-02,0,
2002-07-09,0,
2002-07-16,0,
2002-07-23,0,
2002-07-30,0,
2002-08-06,0,
2002-08-13,0,
2002-08-20,0,
2002-08-27,0,
2002-09-03,0,
2002-09-10,0,
2002-09-17,0,
2002-09-24,0,
2002-10-01,0,
2002-10-08,0,
2002-10-15,0,
2002-10-22,0,
2002-10-29,0,
2002-11-05,0,
2002-11-12,0,
2002-11-19,0,
2002-11-26,0,
2002-12-03,0,
2002-12-10,0,
2002-12-17,0,
2002-12-24,0,
2002-12-31,0,
2003-01-07,0,
2003-01-14,0,
2003-01-21,0,
2003-01-28,6026832,
2003-02-04,0,
2003-02-11,1209,
2003-02-18,0,
2003-02-25,0,
2003-03-04,0,
2003-03-11,0,
2003-03-18,0,
2003-03-25,0,
2003-04-01,604,
2003-04-08,0,
2003-04-15,0,
2003-04-22,0,
2003-04-29,0,
2003-05-06,0,
2003-05-13,0,
2003-05-20,0,
2003-05-27,0,
2003-06-03,0,
2003-06-10,0,
2003-06-17,0,
2003-06-24,0,
2003-07-01,0,
2003-07-08,0,
2003-07-15,0,
2003-07-22,0,
2003-07-29,0,
2003-08-05,0,
2003-08-12,0,
2003-08-19,0,
2003-08-26,0,
2003-09-02,0,
2003-09-09,0,
2003-09-16,0,
2003-09-23,0,
2003-09-30,0,
2003-10-07,0,
2003-10-14,0,
2003-10-21,0,
2003-10-28,0,
2003-11-04,0,
2003-11-11,0,
2003-11-18,0,
2003-11-25,0,
2003-12-02,0,
2003-12-09,0,
2003-12-16,0,
2003-12-23,0,
2003-12-30,0,
2004-01-06,0,
2004-01-13,0,
2004-01-20,0,
2004-01-27,0,
2004-02-03,0,
2004-02-10,7257,
2004-02-17,93744,
2004-02-24,2777846,
2004-03-02,6748358,
2004-03-09,13271126,
2004-03-16,65444803,
2004-03-23,11501481,
2004-03-30,28425,
2004-04-06,0,
2004-04-13,0,
2004-04-20,18748,
2004-04-27,0,
2004-05-04,0,
2004-05-11,0,
2004-05-18,8467,
2004-05-25,0,
2004-06-01,0,
2004-06-08,0,
2004-06-15,0,
2004-06-22,0,
2004-06-29,0,
2004-07-06,0,
2004-07-13,0,
2004-07-20,0,
2004-07-27,0,
2004-08-03,121564,
2004-08-10,0,
2004-08-17,0,
2004-08-24,0,
2004-08-31,0,
2004-09-07,0,
2004-09-14,0,
2004-09-21,0,
2004-09-28,7862,
2004-10-05,0,
2004-10-12,0,
2004-10-19,0,
2004-10-26,0,
2004-11-02,0,
2004-11-09,0,
2004-11-16,0,
2004-11-23,0,
2004-11-30,0,
2004-12-07,0,
2004-12-14,0,
2004-12-21,0,
2004-12-28,0,
2005-01-04,7257,
2005-01-11,0,
2005-01-18,1814,
2005-01-25,0,
2005-02-01,7257,
2005-02-08,0,
2005-02-15,7207401,
2005-02-22,0,
2005-03-01,0,
2005-03-08,0,
2005-03-15,0,
2005-03-22,0,
2005-03-29,2419,
2005-04-05,0,
2005-04-12,0,
2005-04-19,1814,
2005-04-26,0,
2005-05-03,10886,
2005-05-10,0,
2005-05-17,0,
2005-05-24,0,
2005-05-31,10281,
2005-06-07,0,
2005-06-14,0,
2005-06-21,0,
2005-06-28,5443,
2005-07-05,0,
2005-07-12,0,
2005-07-19,604,
2005-07-26,0,
2005-08-02,6048,
2005-08-09,0,
2005-08-16,604,
2005-08-23,0,
2005-08-30,3024,
2005-09-06,0,
2005-09-13,0,
2005-09-20,1209,
2005-09-27,0,
2005-10-04,7862,
2005-10-11,0,
2005-10-18,0,
2005-10-25,0,
2005-11-01,0,
2005-11-08,0,
2005-11-15,0,
2005-11-22,0,
2005-11-29,3024,
2005-12-06,0,
2005-12-13,0,
2005-12-20,0,
2005-12-27,3024,
2006-01-03,0,
2006-01-10,0,
2006-01-17,0,
2006-01-24,0,
2006-01-31,5443,
2006-02-07,6320764,
2006-02-14,82252,
2006-02-21,0,
2006-02-28,5443,
2006-03-07,0,
2006-03-14,0,
2006-03-21,0,
2006-03-28,4838,
2006-04-04,0,
2006-04-11,0,
2006-04-18,0,
2006-04-25,0,
2006-05-02,4838,
2006-05-09,0,
2006-05-16,0,
2006-05-23,0,
2006-05-30,4838,
2006-06-06,0,
2006-06-13,0,
2006-06-20,0,
2006-06-27,0,
2006-07-04,495936,
2006-07-11,912038,
2006-07-18,0,
2006-07-25,0,
2006-08-01,6652,
2006-08-08,0,
2006-08-15,604,
2006-08-22,0,
2006-08-29,3024,
2006-09-05,0,
2006-09-12,0,
2006-09-19,0,
2006-09-26,0,
2006-10-03,2419,
2006-10-10,0,
2006-10-17,0,
2006-10-24,0,
2006-10-31,6048,
2006-11-07,0,
2006-11-14,0,
2006-11-21,0,
2006-11-28,6652,
2006-12-05,0,
2006-12-12,0,
2006-12-19,0,
2006-12-26,0,
2007-01-02,0,
2007-01-09,692496,
2007-01-16,0,
2007-01-23,0,
2007-01-30,6048,
2007-02-06,8421840,
2007-02-13,866678,
2007-02-20,3903379,
2007-02-27,0,
2007-03-06,7862,
2007-03-13,0,
2007-03-20,2419,
2007-03-27,0,
2007-04-03,0,
2007-04-10,0,
2007-04-17,0,
2007-04-24,0,
2007-05-01,0,
2007-05-08,0,
2007-05-15,0,
2007-05-22,0,
2007-05-29,0,
2007-06-05,0,
2007-06-12,0,
2007-06-19,0,
2007-06-26,0,
2007-07-03,0,
2007-07-10,3024,
2007-07-17,0,
2007-07-24,0,
2007-07-31,0,
2007-08-07,1814,
2007-08-14,0,
2007-08-21,0,
2007-08-28,4233,
2007-09-04,0,
2007-09-11,0,
2007-09-18,0,
2007-09-25,0,
2007-10-02,0,
2007-10-09,0,
2007-10-16,0,
2007-10-23,0,
2007-10-30,0,
2007-11-06,0,
2007-11-13,0,
2007-11-20,0,
2007-11-27,0,
2007-12-04,0,
2007-12-11,0,
2007-12-18,0,
2007-12-25,0,
2008-01-01,0,
2008-01-08,0,
2008-01-15,0,
2008-01-22,0,
2008-01-29,0,
2008-02-05,2660515,
2008-02-12,0,
2008-02-19,3130444,
2008-02-26,0,
2008-03-04,0,
2008-03-11,0,
2008-03-18,0,
2008-03-25,0,
2008-04-01,0,
2008-04-08,0,
2008-04-15,0,
2008-04-22,0,
2008-04-29,0,
2008-05-06,0,
2008-05-13,0,
2008-05-20,0,
2008-05-27,0,
2008-06-03,0,
2008-06-10,0,
2008-06-17,0,
2008-06-24,0,
2008-07-01,0,
2008-07-08,0,
2008-07-15,0,
2008-07-22,0,
2008-07-29,0,
2008-08-05,0,
2008-08-12,0,
2008-08-19,0,
2008-08-26,0,
2008-09-02,0,
2008-09-09,0,
2008-09-16,0,
2008-09-23,0,
2008-09-30,0,